Weather in Voloskovo

Russia / Tver Oblast     57°14′15″N   36°40′24″E
temp.,
°C
wind,
m/s
gust,
m/s
humid.,
%
clouds,
%
prec.,
mm/h
press.,
hPa
HPBL,
m
31 july, sat
sat3100:00+15wnw2294100 0.5 100339
03:00+15sw229497 0.6 100247
06:00+15sw289593 0.0 1002218
09:00+21sw59555 0.0 1002987
12:00+24wsw7113679 0.0 10022399
15:00+23wsw61248100 0.0 10032344
18:00+22wsw510549 0.0 10041792
21:00+19wsw412702 0.0 1005735
1 august, sun
sun100:00+15sw310903 0.0 1006244
03:00+14sw310915 0.0 1008227
06:00+15sw278695 0.0 1009206
09:00+21sw3660100 0.0 1009487
12:00+24ssw5748100 0.0 10091339
15:00+19sse4983100 0.4 1008616
18:00+23sw486990 0.1 10061185
21:00+19ssw269139 0.6 1007111
2 august, mon
mon200:00+17sw299620 0.0 1008201
03:00+14sw239258 0.0 100843
06:00+15sw1186100 0.0 100931
09:00+22sse345368 0.0 1008437
12:00+27sse455158 0.0 10061435
15:00+27se5856100 0.0 10031500
18:00+27ssw5105625 0.2 10001455
21:00+20ssw51489100 1.9 1000526
3 august, tue
tue300:00+17s399783 0.9 1000413
03:00+15wsw41097100 0.9 1001548
06:00+15w2790100 0.0 1002541
09:00+18w357299 0.0 1003917
12:00+17wsw3681100 0.1 1005594
15:00+18s247872 0.4 1006237
18:00+19wsw377580 1.3 1006299
21:00+15sw258594 1.3 100793
4 august, wed
wed400:00+15w2678100 0.0 1009183
03:00+14w2784100 0.0 1010224
06:00+13w27900 0.0 1012273
09:00+17wnw46600 0.0 10131026
12:00+21wnw46405 0.0 10142039
15:00+23wnw463211 0.0 10142590
18:00+22nw343931 0.0 10141891
21:00+15nnw236199 0.0 101652